TimeCST,TemperatureF,Dew PointF,Humidity,Sea Level PressureIn,VisibilityMPH,Wind Direction,Wind SpeedMPH,Gust SpeedMPH,PrecipitationIn,Events,Conditions,WindDirDegrees,DateUTC
12:15 AM,66.2,57.2,73,29.98,10.0,South,13.8,21.9,N/A,,Clear,190,2012-12-03 06:15:00
12:35 AM,66.2,57.2,73,29.98,10.0,South,13.8,20.7,N/A,,Clear,190,2012-12-03 06:35:00
12:56 AM,64.4,57.2,77,29.97,10.0,South,16.1,19.6,N/A,,Clear,190,2012-12-03 06:56:00
1:35 AM,64.4,57.2,77,29.96,10.0,South,10.4,17.3,N/A,,Clear,190,2012-12-03 07:35:00
1:55 AM,64.4,55.4,73,29.97,10.0,South,15.0,21.9,N/A,,Clear,190,2012-12-03 07:55:00
2:15 AM,64.4,55.4,73,29.97,10.0,SSW,13.8,20.7,N/A,,Clear,200,2012-12-03 08:15:00
2:35 AM,64.4,55.4,73,29.97,10.0,South,11.5,17.3,N/A,,Mostly Cloudy,190,2012-12-03 08:35:00
2:55 AM,64.4,55.4,73,29.96,10.0,South,11.5,18.4,N/A,,Partly Cloudy,190,2012-12-03 08:55:00
3:15 AM,64.4,55.4,73,29.96,10.0,South,11.5,19.6,N/A,,Clear,180,2012-12-03 09:15:00
3:36 AM,64.4,55.4,73,29.96,10.0,South,12.7,19.6,N/A,,Clear,190,2012-12-03 09:36:00
3:55 AM,64.4,55.4,73,29.95,10.0,South,12.7,18.4,N/A,,Scattered Clouds,190,2012-12-03 09:55:00
4:55 AM,64.4,55.4,73,29.95,10.0,South,10.4,-,N/A,,Mostly Cloudy,190,2012-12-03 10:55:00
5:15 AM,64.4,55.4,73,29.94,10.0,South,10.4,-,N/A,,Partly Cloudy,190,2012-12-03 11:15:00
5:35 AM,64.4,55.4,73,29.94,10.0,South,12.7,18.4,N/A,,Partly Cloudy,190,2012-12-03 11:35:00
6:15 AM,62.6,55.4,77,29.93,10.0,South,12.7,17.3,N/A,,Clear,190,2012-12-03 12:15:00
7:16 AM,62.6,55.4,77,29.93,10.0,South,11.5,18.4,N/A,,Clear,190,2012-12-03 13:16:00
7:35 AM,62.6,55.4,77,29.93,10.0,South,12.7,20.7,N/A,,Clear,180,2012-12-03 13:35:00
7:55 AM,64.4,55.4,73,29.93,10.0,South,12.7,21.9,N/A,,Clear,180,2012-12-03 13:55:00
8:35 AM,64.4,55.4,73,29.94,10.0,South,15.0,26.5,N/A,,Overcast,190,2012-12-03 14:35:00
9:35 AM,64.4,55.4,73,29.96,10.0,South,16.1,24.2,N/A,,Mostly Cloudy,190,2012-12-03 15:35:00
9:55 AM,66.2,55.4,68,29.96,10.0,South,16.1,20.7,N/A,,Mostly Cloudy,190,2012-12-03 15:55:00
10:15 AM,66.2,55.4,68,29.96,10.0,South,13.8,21.9,N/A,,Mostly Cloudy,190,2012-12-03 16:15:00
10:36 AM,69.8,55.4,60,29.95,10.0,SSW,13.8,24.2,N/A,,Mostly Cloudy,200,2012-12-03 16:36:00
10:55 AM,69.8,55.4,60,29.95,10.0,South,18.4,25.3,N/A,,Overcast,190,2012-12-03 16:55:00
11:15 AM,69.8,55.4,60,29.94,10.0,South,21.9,26.5,N/A,,Mostly Cloudy,180,2012-12-03 17:15:00
11:55 AM,71.6,55.4,57,29.92,10.0,South,21.9,31.1,N/A,,Scattered Clouds,190,2012-12-03 17:55:00
12:15 PM,71.6,55.4,57,29.91,10.0,South,16.1,26.5,N/A,,Mostly Cloudy,190,2012-12-03 18:15:00
12:35 PM,71.6,55.4,57,29.91,10.0,SSW,16.1,27.6,N/A,,Overcast,200,2012-12-03 18:35:00
1:15 PM,71.6,53.6,53,29.88,10.0,SSW,19.6,38.0,N/A,,Mostly Cloudy,200,2012-12-03 19:15:00
1:35 PM,73.4,53.6,50,29.88,10.0,South,18.4,25.3,N/A,,Mostly Cloudy,190,2012-12-03 19:35:00
1:55 PM,73.4,53.6,50,29.87,10.0,South,18.4,28.8,N/A,,Scattered Clouds,190,2012-12-03 19:55:00
2:15 PM,73.4,51.8,47,29.86,10.0,South,15.0,27.6,N/A,,Partly Cloudy,190,2012-12-03 20:15:00
2:35 PM,73.4,53.6,50,29.86,10.0,South,18.4,26.5,N/A,,Clear,190,2012-12-03 20:35:00
2:56 PM,73.4,53.6,50,29.87,10.0,South,20.7,27.6,N/A,,Clear,190,2012-12-03 20:56:00
3:15 PM,73.4,53.6,50,29.86,10.0,South,17.3,25.3,N/A,,Clear,190,2012-12-03 21:15:00
3:35 PM,73.4,53.6,50,29.86,10.0,South,17.3,26.5,N/A,,Clear,190,2012-12-03 21:35:00
4:15 PM,71.6,53.6,53,29.86,10.0,South,16.1,27.6,N/A,,Clear,190,2012-12-03 22:15:00
4:35 PM,71.6,53.6,53,29.88,10.0,South,15.0,25.3,N/A,,Clear,190,2012-12-03 22:35:00
4:55 PM,71.6,53.6,53,29.88,10.0,SSW,10.4,18.4,N/A,,Clear,200,2012-12-03 22:55:00
5:16 PM,69.8,51.8,53,29.89,10.0,South,9.2,-,N/A,,Clear,190,2012-12-03 23:16:00
5:35 PM,69.8,53.6,56,29.90,10.0,South,9.2,-,N/A,,Clear,190,2012-12-03 23:35:00
5:55 PM,69.8,51.8,53,29.91,10.0,SSW,6.9,-,N/A,,Clear,200,2012-12-03 23:55:00
6:35 PM,66.2,51.8,60,29.93,10.0,SSW,4.6,-,N/A,,Partly Cloudy,200,2012-12-04 00:35:00
6:55 PM,66.2,51.8,60,29.94,10.0,South,4.6,-,N/A,,Mostly Cloudy,190,2012-12-04 00:55:00
7:15 PM,66.2,53.6,64,29.94,10.0,South,3.5,-,N/A,,Overcast,180,2012-12-04 01:15:00
7:35 PM,64.4,53.6,68,29.94,10.0,South,5.8,-,N/A,,Overcast,170,2012-12-04 01:35:00
7:55 PM,64.4,53.6,68,29.95,10.0,SSE,5.8,-,N/A,,Overcast,150,2012-12-04 01:55:00
8:35 PM,64.4,53.6,68,29.94,10.0,South,10.4,-,N/A,,Mostly Cloudy,170,2012-12-04 02:35:00
8:55 PM,64.4,53.6,68,29.94,10.0,South,8.1,-,N/A,,Partly Cloudy,170,2012-12-04 02:55:00
9:15 PM,64.4,55.4,73,29.94,10.0,South,10.4,16.1,N/A,,Clear,170,2012-12-04 03:15:00
9:35 PM,64.4,55.4,73,29.94,10.0,South,11.5,16.1,N/A,,Clear,170,2012-12-04 03:35:00
9:55 PM,64.4,55.4,73,29.95,10.0,South,9.2,16.1,N/A,,Clear,180,2012-12-04 03:55:00
10:15 PM,64.4,55.4,73,29.95,10.0,South,9.2,-,N/A,,Clear,170,2012-12-04 04:15:00
10:35 PM,64.4,55.4,73,29.95,10.0,South,8.1,-,N/A,,Clear,180,2012-12-04 04:35:00
10:55 PM,64.4,55.4,73,29.95,10.0,South,9.2,-,N/A,,Clear,190,2012-12-04 04:55:00
11:15 PM,64.4,57.2,77,29.95,10.0,South,6.9,-,N/A,,Clear,190,2012-12-04 05:15:00
11:35 PM,64.4,55.4,73,29.95,10.0,South,9.2,-,N/A,,Clear,180,2012-12-04 05:35:00
11:55 PM,64.4,57.2,77,29.95,10.0,South,8.1,-,N/A,,Clear,190,2012-12-04 05:55:00